Location: Étavigny
(49.1201°N, 2.9800°E)
Time: 15:53:31
(UTC+00:00)

Cosmos 1655 Rocket - Pass Details

Date: 28 January 2023
Orbit: 970 x 1006 km, 83.0° (Epoch: 25 March)

Event Time Altitude Azimuth Distance (km) Brightness Sun altitude
Rises 18:00:33 0° 351° (N) 3,712 7.0 -13.5°
Reaches altitude 10° 18:03:05 10° 352° (N) 2,754 6.3 -13.9°
Maximum altitude 18:09:25 81° 80° (E) 997 3.9 -14.9°
Drops below altitude 10° 18:15:39 10° 168° (SSE) 2,713 6.3 -15.9°
Sets 18:18:08 0° 170° (S) 3,654 7.0 -16.4°
